Miscellaneous Local Product
Issued by NWS North Platte, NE

Home | Current Version | Previous Version | Text Only | Print | Product List | Glossary On
Versions: 1 2 3 4 5 6 7 8 9 10 11 12 13 14 15 16 17 18 19 20 21 22 23 24 25 26 27 28 29 30 31 32 33 34 35 36 37 38 39 40 41 42 43 44 45 46 47 48 49 50
000
AXUS43 KLBF 280810
MISLBF


WESTERN AND NORTH CENTRAL NEBRASKA HOURLY WEATHER ROUNDUP
NATIONAL WEATHER SERVICE NORTH PLATTE NE
200 AM CST WED JAN 28 2015

***STATIONS NOT REPORTING VARIABLES SUCH AS SKY/WEATHER OR
PRESSURE ARE PROVIDED BY THE NEBRASKA DEPARTMENT OF
ROADS...RAWS...AND APRS NETWORKS...AND ARE NOT UNDER
NATIONAL WEATHER SERVICE QUALITY CONTROL***

...OBSERVATIONS IN AND NEAR THE EASTERN PANHANDLE OF NEBRASKA...

CITY           SKY/WX    TMP DP  RH WIND       PRES   REMARKS
PINE RIDGE     PTCLDY    39  27  62 SW5       29.85F
CHADRON        CLEAR     36  27  69 W5        29.87F WCI  32
ALLIANCE       CLEAR     34  26  72 CALM      29.92F
SIDNEY         CLEAR     40  27  59 NW15      29.96S WCI  32
WHITECLAY        N/A     33  26  74 E8          N/A  WCI  27
CRESCENT LAKE    N/A     48  25  40 W9G16       N/A
LISCO            N/A     36  28  72 W5          N/A  WCI  32
LEWELLEN         N/A     35  30  80 W10         N/A  WCI  28
$$

...OBSERVATIONS IN NORTH CENTRAL NEBRASKA...

CITY           SKY/WX    TMP DP  RH WIND       PRES   REMARKS
VALENTINE      CLEAR     36  30  79 SW8       29.83F WCI  30
THEDFORD       CLEAR     38  30  73 W3        29.86F
AINSWORTH      CLEAR     37  29  75 SW7       29.82F WCI  31
O`NEILL        CLEAR     37  32  85 S9        29.83F WCI  30
ORD            CLEAR     25  24  96 CALM      29.85F
BROKEN BOW     CLEAR     34  29  82 CALM      29.86F
BROWNLEE         N/A     49  29  47 W8          N/A
SPRINGVIEW       N/A     28  25  89 CALM        N/A
BREWSTER         N/A     34  32  90 SW5         N/A  WCI  30
ROSE             N/A     38  35  85 SE5         N/A  WCI  35
NEWPORT          N/A     38  33  84 S6          N/A  WCI  33
SARGENT          N/A     32  29  87 CALM        N/A
COMSTOCK         N/A     39  32  75 CALM        N/A
CHAMBERS         N/A     37  31  78 S5G13       N/A  WCI  33
EWING            N/A     37  32  83 S5          N/A  WCI  33
$$

...OBSERVATIONS IN SOUTHWEST NEBRASKA AND FAR NORTHEAST COLORADO...

CITY           SKY/WX    TMP DP  RH WIND       PRES   REMARKS
WRAY           FAIR      36  31  81 W5        29.89F WCI  32
HOLYOKE        FAIR      41  30  65 NW12      29.90S
IMPERIAL       CLEAR     38  25  59 NW3       29.87F
OGALLALA       PTCLDY    34  30  83 W6        29.90S WCI  29
NORTH PLATTE   PTCLDY    28  23  81 CALM      29.87F
MCCOOK         PTCLDY    33  26  75 NW3       29.85F
LEXINGTON      CLEAR     30  26  86 CALM      29.86F
BRADY            N/A     30  25  81 CALM        N/A
GOTHENBURG       N/A     34  26  74 W3          N/A
CALLAWAY         N/A     35  29  80 CALM        N/A
$$

...NORTH PLATTE AREA...

CITY           SKY/WX    TMP DP  RH WIND       PRES   REMARKS
AIRPORT        PTCLDY    28  23  81 CALM      29.87F
DOWNTOWN         N/A     34  27  74 CALM        N/A
$$

...SOME WEATHER OBSERVATIONS FROM AROUND THE REGION...

CITY           SKY/WX    TMP DP  RH WIND       PRES   REMARKS
DENVER         MOCLDY    47  24  40 W7        30.00F
LARAMIE        LGT RAIN  39  30  70 SW18      30.10F WCI  30
CHEYENNE       MOCLDY    48  26  42 W16G32    30.01F
SCOTTSBLUFF      N/A    N/A N/A N/A MISG      29.94F
RAPID CITY     PTCLDY    51  27  39 NW13      29.77F
PIERRE         PTCLDY    35  32  88 E3        29.73F
WINNER         FAIR      48  32  53 SW10      29.76F
SIOUX FALLS    PTCLDY    35  30  82 S13       29.90F WCI  26
OMAHA          PTCLDY    38  30  73 SE15      29.96F WCI  29
GRAND ISLAND   CLEAR     33  28  81 S6        29.87F WCI  28
KANSAS CITY    CLEAR     40  30  67 SE14      30.00F WCI  32
WICHITA        PTCLDY    43  33  68 S6        29.95F
HAYS           CLEAR     46  30  53 SW12      29.90F
LIBERAL        CLEAR     45  32  61 SW13      29.97F
GOODLAND       CLEAR     30  26  85 W5        29.88F WCI  25
$$



USA.gov is the U.S. government's official web portal to all federal, state and local government web resources and services.